Location: Unspecified
(48.2082°N, 0.0000°E)
Time: 03:21:05
(UTC+00:00)

S-56A Canister/Altair - Pass Details

Date: 24 June 2019
Orbit: 632 x 2500 km, 38.9° (Epoch: 21 July)

Event Time Altitude Azimuth Distance (km) Brightness Sun altitude
Rises 16:31:56 0° 247° (WSW) 5,107 12.7 32.1°
Reaches altitude 10° 16:35:59 10° 241° (WSW) 3,802 12.1 31.4°
Maximum altitude 16:44:23 40° 177° (S) 1,679 9.5 30.0°
Drops below altitude 10° 16:50:10 10° 109° (ESE) 2,616 9.8 29.1°
Sets 16:52:28 0° 102° (ESE) 3,380 10.3 28.7°
